Tiempo atmosférico en la estación meteorológica de Valencia De Don Juan, León (788 m.)



Fecha
DESCASC
Temp. máxima en grados centígrados (hora)
DESCASC
Temp. mínima en grados centígrados (hora)
DESCASC
Temp. media en grados centígrados
DESCASC
Racha de viento máxima en m/sg (hora)
DESCASC
Velocidad máxima media en intervalos de 10 minutos(hora)
DESCASC
Precipitaciones diarias en mm
DESCASC
Precipitaciones de 00:00 a 06:00 en mm
DESCASC
Precipitaciones de 06:00 a 12:00 en mm
DESCASC
Precipitaciones de 12:00 a 18:00 en mm
DESCASC
Precipitaciones de 18:00 a 24:00 en mm
DESCASC
25-01-2020 7.3 (15:40) 2.6 (05:50) 5 6.67 (19:30) 3.61 (05:40) 0 0 0 0 0
24-01-2020 6.8 (15:10) 2.3 (07:50) 4.6 5.83 (02:50) 4.44 (02:50) 1.2 0 0.2 0 1
23-01-2020 7.7 (16:10) -1.7 (09:10) 3 9.72 (03:40) 7.5 (21:50) 0 0 0 0 0
22-01-2020 9 (13:30) 2.7 (00:00) 5.9 11.11 (05:50) 8.89 (05:50) 0 0 0 0 0
21-01-2020 8.6 (16:30) -1.4 (-00:0) 3.6 15.83 (11:50) 12.22 (11:50) 0 0 0 0 0
20-01-2020 4.8 (13:20) -1 (-00:0) 1.9 16.94 (13:30) 13.06 (13:30) 0 0 0 0 0
19-01-2020 7.1 (14:20) -0.1 (00:00) 3.5 21.94 (11:10) 16.94 (11:10) 0 0 0 0 0
18-01-2020 8.9 (16:30) 2.7 (00:00) 5.8 17.78 (16:00) 11.67 (16:00) 2 0 0.8 1.2 0
17-01-2020 8.1 (14:10) 2.8 (00:00) 5.5 13.89 (00:30) 8.89 (00:30) 3.8 3.6 0 0.2 0
16-01-2020 11.7 (13:30) 6.9 (00:00) 9.3 17.5 (13:20) 12.22 (13:40) 0.4 0.4 0 0 0
15-01-2020 -- (--) -- (--) -- -- (--) -- (--) -- -- -- -- 0
14-01-2020 -- (--) -- (--) -- -- (--) -- (--) -- -- -- -- --
13-01-2020 -- (--) -- (--) -- -- (--) -- (--) -- -- -- -- --
12-01-2020 -- (--) -- (--) -- -- (--) -- (--) -- 0 0 -- --
11-01-2020 7.4 (15:50) -4.2 (-00:0) 1.6 4.17 (20:20) 3.61 (20:30) 0 0 0 0 0
10-01-2020 8.5 (16:10) 0.1 (00:00) 4.3 10.56 (00:40) 7.22 (00:40) 0 0 0 0 0
09-01-2020 11.1 (15:20) -1.1 (-00:0) 5 13.33 (15:30) 9.72 (15:30) 0 0 0 0 0
08-01-2020 10 (17:00) -3.6 (-00:0) 3.2 3.89 (19:10) 3.61 (19:10) 0.2 0 0.2 0 0
07-01-2020 3.1 (16:40) -4.2 (-00:0) -0.5 3.89 (15:30) 3.06 (15:30) 0 0 0 0 0
06-01-2020 -0.2 (00:00) -2.3 (-00:0) -1.2 3.33 (23:00) 2.5 (22:30) 0.2 0 0 0.2 0
05-01-2020 9.6 (16:50) -3.8 (-00:0) 2.9 5.83 (19:50) 4.72 (19:10) 0.2 0 0.2 0 0
04-01-2020 2.7 (14:50) -0.9 (-00:0) 0.9 4.72 (22:50) 3.89 (22:50) 0 0 0 0 0
03-01-2020 3.5 (16:30) -2.2 (-00:0) 0.6 4.72 (23:30) 3.33 (23:30) 0.2 0 0.2 0 0
02-01-2020 0.8 (16:20) -4.9 (-00:0) -2.1 3.33 (14:20) 2.22 (14:20) 0.2 0 0 0.2 0
01-01-2020 6 (15:50) -3.9 (-00:0) 1 3.61 (16:20) 2.5 (16:00) 0 0 0 0 0
31-12-2019 10.6 (16:30) -2.4 (-00:0) 4.1 3.06 (18:10) 2.78 (18:00) 0.2 0 0.2 0 0
30-12-2019 -- (--) -- (--) -- -- (--) -- (--) -- 0 0 0 --
29-12-2019 12.6 (16:30) -1.2 (-00:0) 5.7 3.06 (07:30) 2.5 (07:30) 0 0 0 0 0
28-12-2019 12.4 (16:20) -3.8 (-00:0) 4.3 3.33 (06:10) 2.78 (06:10) 0.2 0 0.2 0 0

Gráficas

Temp. máximas Temp. mínimas Temp. medias Precipitaciones Rachas de viento máximas Velocidades máximas media en intervalos de 10 minutos

Datos horarios

Fecha y hora oficial Temperatura (ºC) Velocidad del viento (km/h) Dirección del viento Racha (km/h) Dirección de racha Precipitación (mm) Presión (hPa) Tendencia (hPa) Humedad (%)
2020-01-26 23:00:00 5 18 Sudoeste 31 Sur 0 -- -- 89
2020-01-26 22:00:00 3.9 6 Sur 15 Sudoeste 0 -- -- 90
2020-01-26 21:00:00 4.1 11 Sudoeste 15 Sudoeste 0 -- -- 88
2020-01-26 20:00:00 4.7 10 Sur 19 Sudoeste 0 -- -- 85
2020-01-26 19:00:00 5.3 9 Sur 16 Sur 0 -- -- 86
2020-01-26 18:00:00 5.7 12 Sudeste 15 Sudeste 0 -- -- 92
2020-01-26 17:00:00 5.2 3 Sudoeste 15 Sur 0 -- -- 96
2020-01-26 16:00:00 3.6 12 Sur 18 Sur 0 -- -- 97
2020-01-26 15:00:00 2.4 12 Sur 20 Sudoeste 0 -- -- 97
2020-01-26 14:00:00 2 12 Sudoeste 19 Sudoeste 0 -- -- 97
2020-01-26 13:00:00 0.9 8 Sur 14 Sudeste 0 -- -- 97
2020-01-26 12:00:00 0 5 Sur 9 Sudeste 0 -- -- 97
2020-01-26 11:00:00 -1.3 5 Sudeste 7 Sudeste 0 -- -- 97
2020-01-26 10:00:00 -2 5 Nordeste 9 Este 0 -- -- 96
2020-01-26 09:00:00 -1.8 6 Nordeste 12 Este 0 -- -- 96
2020-01-26 08:00:00 -0.9 5 Nordeste 12 Norte 0 -- -- 96
2020-01-26 07:00:00 -0.6 3 Norte 8 Noroeste 0 -- -- 96
2020-01-26 06:00:00 0.1 3 Norte 7 Noroeste 0.2 -- -- 95
2020-01-26 05:00:00 0.5 4 Noroeste 7 Norte 0 -- -- 95
2020-01-26 04:00:00 0.4 3 Noroeste 10 Sudoeste 0 -- -- 94
2020-01-26 03:00:00 0.6 5 Sur 9 Sudoeste 0 -- -- 95
2020-01-26 02:00:00 1.2 3 Sur 6 Sur 0 -- -- 94
2020-01-26 01:00:00 0.5 3 Norte 8 Norte 0 -- -- 91
2020-01-26 00:00:00 3.1 0 Calma 4 Sudeste 0 -- -- 91
2020-01-25 23:00:00 4 0 Calma 5 Este 0 -- -- 90
2020-01-25 22:00:00 4.1 3 Este 6 Oeste 0 -- -- 90
2020-01-25 21:00:00 4.4 3 Noroeste 7 Oeste 0 -- -- 87
2020-01-25 20:00:00 4.7 6 Noroeste 24 Noroeste 0 -- -- 87
2020-01-25 19:00:00 6.1 9 Sudeste 12 Sudeste 0 -- -- 84
2020-01-25 18:00:00 6.8 0 Calma 4 Norte 0 -- -- 79
2020-01-25 17:00:00 7 3 Norte 8 Noroeste 0 -- -- 77
2020-01-25 16:00:00 7.3 0 Calma 6 Sudoeste 0 -- -- 77
2020-01-25 15:00:00 6.9 4 Sur 12 Sudeste 0 -- -- 79
2020-01-25 14:00:00 6.6 8 Sur 12 Sur 0 -- -- 84
2020-01-25 13:00:00 5.7 8 Sudeste 15 Sudeste 0 -- -- 90
2020-01-25 12:00:00 5 7 Sudeste 9 Sudeste 0 -- -- 96
2020-01-25 11:00:00 4.3 4 Nordeste 10 Nordeste 0 -- -- 96
2020-01-25 10:00:00 3.6 9 Este 11 Este 0 -- -- 96
2020-01-25 09:00:00 3.3 7 Norte 13 Nordeste 0 -- -- 96
2020-01-25 08:00:00 3.3 11 Nordeste 14 Nordeste 0 -- -- 96
2020-01-25 07:00:00 3.3 8 Nordeste 13 Nordeste 0 -- -- 96
2020-01-25 06:00:00 2.6 8 Este 15 Este 0 -- -- 95
2020-01-25 05:00:00 3.3 6 Nordeste 9 Nordeste 0 -- -- 95
2020-01-25 04:00:00 3.9 5 Norte 6 Norte 0 -- -- 94
2020-01-25 03:00:00 4.7 4 Sudoeste 8 Sur 0 -- -- 93
2020-01-25 02:00:00 4.8 4 Sudeste 8 Este 0 -- -- 93
2020-01-25 01:00:00 4.8 7 Este 10 Este 0 -- -- 94
2020-01-25 00:00:00 4.6 7 Este 9 Sudeste 0 -- -- 94
2020-01-24 23:00:00 4.6 5 Este 10 Nordeste 0 -- -- 94
2020-01-24 22:00:00 5 2 Norte 7 Sudoeste 0 -- -- 92
2020-01-24 21:00:00 5.4 5 Sudoeste 7 Sur 0 -- -- 91
2020-01-24 20:00:00 5.6 0 Calma -- -- 0 -- -- 89
2020-01-24 19:00:00 5.8 0 Calma 10 Sudeste 1 -- -- 88
2020-01-24 18:00:00 6.4 0 Calma 9 Noroeste 0 -- -- 83
2020-01-24 17:00:00 6.6 6 Noroeste 9 Noroeste 0 -- -- 82
2020-01-24 16:00:00 6.7 3 Noroeste 9 Oeste 0 -- -- 82
2020-01-24 15:00:00 6.7 5 Sudoeste 8 Sudoeste 0 -- -- 81
2020-01-24 14:00:00 6.6 5 Sur 13 Sur 0 -- -- 82
2020-01-24 13:00:00 6.2 6 Sur 13 Sudeste 0 -- -- 84
2020-01-24 12:00:00 5.6 11 Sudeste 19 Sudeste 0 -- -- 86
2020-01-24 11:00:00 5.4 15 Sudeste 19 Este 0 -- -- 86
2020-01-24 10:00:00 4.1 13 Este 18 Sudeste 0 -- -- 90
2020-01-24 09:00:00 2.9 0 Calma 9 Norte 0 -- -- 93
2020-01-24 08:00:00 2.4 5 Norte 10 Norte 0 -- -- 93
2020-01-24 07:00:00 3 0 Calma -- -- 0.2 -- -- 92
2020-01-24 06:00:00 2.8 0 Calma -- -- 0 -- -- 92
2020-01-24 05:00:00 3 0 Calma 5 Norte 0 -- -- 90
2020-01-24 04:00:00 3.9 5 Nordeste 19 Este 0 -- -- 89
2020-01-24 03:00:00 4.2 16 Este 21 Sudeste 0 -- -- 86
2020-01-24 02:00:00 4.3 7 Sudeste 9 Sudeste 0 -- -- 86
2020-01-24 01:00:00 3.9 3 Norte 13 Este 0 -- -- 86
2020-01-24 00:00:00 4.9 14 Este 20 Este 0 -- -- 81
2020-01-23 23:00:00 4.9 12 Este 26 Este 0 -- -- 82
2020-01-23 22:00:00 4.7 25 Este 29 Este 0 -- -- 81
2020-01-23 21:00:00 4.8 26 Este 28 Este 0 -- -- 82
2020-01-23 20:00:00 3.8 12 Este 15 Este 0 -- -- 86
2020-01-23 19:00:00 5.1 12 Este 15 Este 0 -- -- 82
2020-01-23 18:00:00 6.6 8 Sudeste 9 Nordeste 0 -- -- 75
2020-01-23 17:00:00 7.5 8 Este 15 Este 0 -- -- 70
2020-01-23 16:00:00 7.6 13 Este 18 Este 0 -- -- 68
2020-01-23 15:00:00 6.6 10 Este 17 Sudeste 0 -- -- 76
2020-01-23 14:00:00 5.2 7 Este 20 Este 0 -- -- 85
2020-01-23 13:00:00 3.8 15 Este 28 Sudeste 0 -- -- 87
2020-01-23 12:00:00 4.2 24 Este 32 Este 0 -- -- 87
2020-01-23 11:00:00 2.1 12 Nordeste 23 Nordeste 0 -- -- 93
2020-01-23 10:00:00 -1.4 6 Norte 10 Norte 0 -- -- 93
2020-01-23 09:00:00 -1.5 10 Norte 14 Nordeste 0 -- -- 92
2020-01-23 08:00:00 -0.8 10 Nordeste 15 Norte 0 -- -- 92
2020-01-23 07:00:00 -0.6 8 Nordeste 15 Nordeste 0 -- -- 92
2020-01-23 06:00:00 -0.2 8 Nordeste 14 Norte 0 -- -- 92
2020-01-23 05:00:00 -0.1 10 Norte 15 Norte 0 -- -- 90
2020-01-23 04:00:00 1.6 5 Norte 35 Este 0 -- -- 86
2020-01-23 03:00:00 2.8 14 Este 33 Este 0 -- -- 91
2020-01-23 02:00:00 1 22 Norte 29 Norte 0 -- -- 92
2020-01-23 01:00:00 1.3 20 Norte 26 Norte 0 -- -- 91
2020-01-23 00:00:00 2.7 12 Nordeste 33 Este 0 -- -- 88
2020-01-22 23:00:00 3.1 24 Este 37 Este 0 -- -- 86
2020-01-22 22:00:00 3.4 26 Este 32 Este 0 -- -- 85
2020-01-22 21:00:00 3.5 19 Este 26 Este 0 -- -- 84
2020-01-22 20:00:00 4.8 22 Este 27 Este 0 -- -- 77
2020-01-22 19:00:00 4.9 11 Este 17 Este 0 -- -- 80
2020-01-22 18:00:00 6.9 13 Este 23 Este 0 -- -- 73
2020-01-22 17:00:00 8.2 20 Este 29 Este 0 -- -- 65
2020-01-22 16:00:00 8.6 21 Este 31 Este 0 -- -- 65
2020-01-22 15:00:00 8.5 23 Este 35 Este 0 -- -- 66
2020-01-22 14:00:00 8.8 29 Este 37 Este 0 -- -- 64
2020-01-22 13:00:00 7.9 26 Nordeste 36 Este 0 -- -- 72
2020-01-22 12:00:00 6.9 29 Este 39 Este 0 -- -- 77
2020-01-22 11:00:00 5.7 24 Nordeste 35 Nordeste 0 -- -- 83
2020-01-22 10:00:00 4.5 13 Nordeste 21 Nordeste 0 -- -- 89
2020-01-22 09:00:00 4.1 13 Nordeste 26 Nordeste 0 -- -- 89
2020-01-22 08:00:00 4.6 21 Nordeste 35 Nordeste 0 -- -- 84
2020-01-22 07:00:00 5.1 24 Nordeste 34 Este 0 -- -- 78
2020-01-22 06:00:00 5.2 30 Este 40 Este 0 -- -- 75
2020-01-22 05:00:00 4 14 Nordeste 19 Nordeste 0 -- -- 77
2020-01-22 04:00:00 4.1 17 Nordeste 26 Nordeste 0 -- -- 76
2020-01-22 03:00:00 3.5 16 Norte 30 Nordeste 0 -- -- 75
2020-01-22 02:00:00 3.6 18 Nordeste 28 Norte 0 -- -- 75
2020-01-22 01:00:00 3.2 10 Nordeste 26 Norte 0 -- -- 73
2020-01-22 00:00:00 3.2 22 Norte 27 Norte 0 -- -- 72
2020-01-21 23:00:00 4.2 9 Norte 33 Nordeste 0 -- -- 67
2020-01-21 22:00:00 5.3 28 Nordeste 34 Nordeste 0 -- -- 63
2020-01-21 21:00:00 4.4 25 Norte 32 Norte 0 -- -- 68
2020-01-21 20:00:00 4.3 19 Nordeste 33 Nordeste 0 -- -- 71
2020-01-21 19:00:00 5 24 Nordeste 44 Nordeste 0 -- -- 69
2020-01-21 18:00:00 5.9 42 Nordeste 54 Nordeste 0 -- -- 68
2020-01-21 17:00:00 7.6 33 Nordeste 48 Nordeste 0 -- -- 64
2020-01-21 16:00:00 7.8 30 Nordeste 57 Este 0 -- -- 62
2020-01-21 15:00:00 8.4 41 Este 51 Este 0 -- -- 58
2020-01-21 14:00:00 7.6 27 Nordeste 39 Nordeste 0 -- -- 59
2020-01-21 13:00:00 4.3 22 Nordeste 49 Nordeste 0 -- -- 71
2020-01-21 12:00:00 5 39 Nordeste 57 Este 0 -- -- 62
2020-01-21 11:00:00 3.3 21 Nordeste 34 Nordeste 0 -- -- 68
2020-01-21 10:00:00 1.6 13 Nordeste 27 Nordeste 0 -- -- 73
2020-01-21 09:00:00 1.2 23 Nordeste 30 Nordeste 0 -- -- 76
2020-01-21 08:00:00 -0.3 21 Nordeste 35 Nordeste 0 -- -- 80
2020-01-21 07:00:00 0.6 27 Nordeste 41 Nordeste 0 -- -- 77
2020-01-21 06:00:00 1.3 19 Nordeste 30 Nordeste 0 -- -- 75
2020-01-21 05:00:00 -0.2 18 Nordeste 23 Nordeste 0 -- -- 78
2020-01-21 04:00:00 -0.6 16 Norte 24 Norte 0 -- -- 81
2020-01-21 03:00:00 0.1 17 Norte 24 Norte 0 -- -- 76
2020-01-21 02:00:00 -0.1 13 Nordeste 30 Nordeste 0 -- -- 75
2020-01-21 01:00:00 0.6 21 Nordeste 32 Nordeste 0 -- -- 75
2020-01-21 00:00:00 0.9 25 Nordeste 32 Nordeste 0 -- -- 72
2020-01-20 23:00:00 0.8 3 Norte 14 Nordeste 0 -- -- 68
2020-01-20 22:00:00 0.8 6 Nordeste 19 Nordeste 0 -- -- 67
2020-01-20 21:00:00 0.6 16 Nordeste 21 Nordeste 0 -- -- 67
2020-01-20 20:00:00 1 14 Nordeste 22 Nordeste 0 -- -- 65
2020-01-20 19:00:00 1.7 15 Norte 26 Nordeste 0 -- -- 62
2020-01-20 18:00:00 3.1 17 Nordeste 39 Nordeste 0 -- -- 55
2020-01-20 17:00:00 3.7 23 Nordeste 41 Este 0 -- -- 52
2020-01-20 16:00:00 3.5 28 Este 42 Este 0 -- -- 50
2020-01-20 15:00:00 3.6 29 Este 48 Este 0 -- -- 48
2020-01-20 14:00:00 4.2 38 Este 61 Este 0 -- -- 43
2020-01-20 13:00:00 4.3 20 Nordeste 35 Nordeste 0 -- -- 42
2020-01-20 12:00:00 3.3 22 Nordeste 47 Nordeste 0 -- -- 50
2020-01-20 11:00:00 2.5 31 Nordeste 46 Nordeste 0 -- -- 50
2020-01-20 10:00:00 0.9 15 Nordeste 30 Nordeste 0 -- -- 61
2020-01-20 09:00:00 0.2 28 Nordeste 38 Nordeste 0 -- -- 60
2020-01-20 08:00:00 -0.2 25 Nordeste 35 Nordeste 0 -- -- 64
2020-01-20 07:00:00 -0.7 18 Nordeste 31 Nordeste 0 -- -- 68
2020-01-20 06:00:00 -0.9 13 Nordeste 21 Este 0 -- -- 67
2020-01-20 05:00:00 -0.1 15 Este 31 Nordeste 0 -- -- 66
2020-01-20 04:00:00 -0.6 15 Nordeste 25 Nordeste 0 -- -- 67
2020-01-20 03:00:00 0 18 Nordeste 31 Nordeste 0 -- -- 63
2020-01-20 02:00:00 0.8 23 Nordeste 37 Nordeste 0 -- -- 62
2020-01-20 01:00:00 1.2 32 Nordeste 45 Nordeste 0 -- -- 60
2020-01-20 00:00:00 1.6 31 Nordeste 48 Nordeste 0 -- -- 59
2020-01-19 23:00:00 1.6 30 Nordeste 63 Nordeste 0 -- -- 58
2020-01-19 22:00:00 2 41 Nordeste 59 Nordeste 0 -- -- 56
2020-01-19 21:00:00 1.8 32 Nordeste 44 Nordeste 0 -- -- 55
2020-01-19 20:00:00 1.8 31 Nordeste 57 Nordeste 0 -- -- 52
2020-01-19 19:00:00 2.6 37 Nordeste 58 Nordeste 0 -- -- 48
2020-01-19 18:00:00 3.8 39 Nordeste 64 Nordeste 0 -- -- 47
2020-01-19 17:00:00 5.3 42 Nordeste 64 Nordeste 0 -- -- 47
2020-01-19 16:00:00 6.4 46 Nordeste 60 Nordeste 0 -- -- 49
2020-01-19 15:00:00 7 46 Nordeste 78 Nordeste 0 -- -- 47
2020-01-19 14:00:00 6.8 48 Nordeste 74 Norte 0 -- -- 54
2020-01-19 13:00:00 6.2 59 Norte 76 Norte 0 -- -- 59
2020-01-19 12:00:00 5.8 53 Norte 79 Nordeste 0 -- -- 58
2020-01-19 11:00:00 5.3 55 Norte 78 Norte 0 -- -- 60
2020-01-19 10:00:00 4.9 45 Norte 63 Nordeste 0 -- -- 70
2020-01-19 09:00:00 4.1 40 Norte 55 Norte 0 -- -- 74
2020-01-19 08:00:00 3.7 30 Norte 39 Nordeste 0 -- -- 78
2020-01-19 07:00:00 0.2 3 Nordeste 16 Norte 0 -- -- 93
2020-01-19 06:00:00 0.3 9 Nordeste 13 Nordeste 0 -- -- 92
2020-01-19 05:00:00 0.8 8 Nordeste 16 Norte 0 -- -- 92
2020-01-19 04:00:00 0.8 13 Norte 17 Norte 0 -- -- 93
2020-01-19 03:00:00 1 11 Nordeste 17 Norte 0 -- -- 92
2020-01-19 02:00:00 1.5 11 Norte 21 Norte 0 -- -- 91
2020-01-19 01:00:00 2.3 9 Norte 18 Noroeste 0 -- -- 90
2020-01-19 00:00:00 2.7 5 Noroeste 9 Oeste 0 -- -- 87
2020-01-18 23:00:00 3.2 2 Noroeste 20 Oeste 0 -- -- 86
2020-01-18 22:00:00 3.2 11 Oeste 21 Noroeste 0 -- -- 86
2020-01-18 21:00:00 3.9 10 Oeste 21 Noroeste 0 -- -- 83
2020-01-18 20:00:00 5 18 Noroeste 30 Oeste 0 -- -- 77
2020-01-18 19:00:00 5.7 26 Noroeste 55 Noroeste 0 -- -- 73
2020-01-18 18:00:00 7.2 32 Noroeste 55 Oeste 0.2 -- -- 78
2020-01-18 17:00:00 7.6 34 Noroeste 56 Noroeste 0.8 -- -- 89
2020-01-18 16:00:00 8.5 42 Sudoeste 64 Sudoeste 0 -- -- 95
2020-01-18 15:00:00 7.4 18 Sudoeste 30 Sudoeste 0 -- -- 96
2020-01-18 14:00:00 6.9 24 Sudoeste 33 Sudoeste 0 -- -- 95
2020-01-18 13:00:00 6.3 22 Sur 35 Sur 0.2 -- -- 95
2020-01-18 12:00:00 5.9 20 Sur 28 Sur 0 -- -- 95
2020-01-18 11:00:00 5.3 21 Sur 26 Sudeste 0.2 -- -- 94
2020-01-18 10:00:00 4.3 14 Sudeste 18 Sur 0.2 -- -- 93
2020-01-18 09:00:00 4.3 12 Sudeste 18 Sudeste 0.4 -- -- 91
2020-01-18 08:00:00 4.2 12 Sur 22 Sur 0 -- -- 89
2020-01-18 07:00:00 4.3 13 Sur 18 Sur 0 -- -- 84
2020-01-18 06:00:00 3.9 6 Sudeste 13 Sudeste 0 -- -- 83
2020-01-18 05:00:00 4 8 Sur 22 Sudeste 0 -- -- 84
2020-01-18 04:00:00 3.7 14 Sudeste 19 Sudeste 0 -- -- 82
2020-01-18 03:00:00 3.6 5 Sur 12 Este 0 -- -- 84
2020-01-18 02:00:00 3.6 8 Sudeste 13 Sudeste 0 -- -- 84
2020-01-18 01:00:00 3.5 7 Este 13 Este 0 -- -- 83
2020-01-18 00:00:00 3.8 2 Sudeste 12 Nordeste 0 -- -- 82
2020-01-17 23:00:00 4.3 3 Sudoeste 8 Sur 0 -- -- 77
2020-01-17 22:00:00 4.4 4 Sudeste 7 Este 0 -- -- 74
2020-01-17 21:00:00 4.7 0 Calma -- -- 0 -- -- 73
2020-01-17 20:00:00 5 0 Calma 8 Norte 0 -- -- 67
2020-01-17 19:00:00 5 5 Nordeste 13 Noroeste 0 -- -- 69
2020-01-17 18:00:00 5.8 11 Noroeste 21 Noroeste 0 -- -- 64
2020-01-17 17:00:00 6.9 15 Noroeste 25 Noroeste 0 -- -- 60
2020-01-17 16:00:00 7.7 19 Noroeste 28 Oeste 0 -- -- 58
2020-01-17 15:00:00 7.4 20 Oeste 29 Oeste 0 -- -- 63
2020-01-17 14:00:00 7.9 19 Noroeste 28 Oeste 0 -- -- 67
2020-01-17 13:00:00 6.9 20 Oeste 28 Noroeste 0.2 -- -- 63
2020-01-17 12:00:00 6 10 Oeste 17 Oeste 0 -- -- 80
2020-01-17 11:00:00 5.2 9 Sudoeste 13 Sudoeste 0 -- -- 90
2020-01-17 10:00:00 3.5 9 Sudeste 12 Sudeste 0 -- -- 94
2020-01-17 09:00:00 2.8 4 Nordeste 6 Nordeste 0 -- -- 91
2020-01-17 08:00:00 3.4 4 Oeste 15 Sudoeste 0 -- -- 90
2020-01-17 07:00:00 4.3 9 Sudoeste 16 Sudoeste 0 -- -- 91
2020-01-17 06:00:00 4.5 5 Norte 19 Sudoeste 0 -- -- 91
2020-01-17 05:00:00 5.3 14 Sudoeste 20 Sudoeste 0 -- -- 91
2020-01-17 04:00:00 5.8 14 Sur 36 Sudoeste 2.4 -- -- 92
2020-01-17 03:00:00 6.3 21 Sudoeste 41 Sur 1 -- -- 91
2020-01-17 02:00:00 6.6 19 Sur 29 Sur 0 -- -- 90
2020-01-17 01:00:00 6.6 21 Sudoeste 50 Sudoeste 0.2 -- -- 89
2020-01-17 00:00:00 7.1 30 Sudoeste 43 Sur 0 -- -- 86
2020-01-16 23:00:00 7.4 34 Sudoeste 57 Sudoeste 0 -- -- 87
2020-01-16 22:00:00 7.6 36 Sudoeste 53 Sudoeste 0 -- -- 87
2020-01-16 21:00:00 8.2 31 Sudoeste 53 Sur 0 -- -- 77
2020-01-16 20:00:00 8.3 33 Sur 54 Sudoeste 0 -- -- 74
2020-01-16 19:00:00 8.6 36 Sur 60 Sur 0 -- -- 73
2020-01-16 18:00:00 9.4 34 Sudoeste 49 Sur 0 -- -- 66
2020-01-16 17:00:00 9.9 33 Sudoeste 55 Sudoeste 0 -- -- 66
2020-01-16 16:00:00 10.7 37 Sudoeste 53 Sudoeste 0 -- -- 63
2020-01-16 15:00:00 11 37 Sudoeste 52 Sur 0 -- -- 63
2020-01-16 14:00:00 11.1 39 Sudoeste 63 Sudoeste 0 -- -- 64
2020-01-16 13:00:00 11.2 42 Sudoeste 59 Sur 0 -- -- 70
2020-01-16 12:00:00 9.4 36 Sur 51 Sur 0 -- -- 84
2020-01-16 11:00:00 8.4 35 Sur 51 Sur 0 -- -- 91
2020-01-16 10:00:00 8.1 28 Sur 38 Sur 0 -- -- 91
2020-01-16 09:00:00 7.8 27 Sur 39 Sur 0 -- -- 90
2020-01-16 08:00:00 8.2 24 Sur 40 Sur 0 -- -- 90
2020-01-16 07:00:00 8 24 Sur 35 Sur 0 -- -- 92
2020-01-16 06:00:00 7.7 26 Sur 41 Sur 0 -- -- 93
2020-01-16 05:00:00 7.5 21 Sur 31 Sur 0.2 -- -- 94
2020-01-16 04:00:00 7.4 17 Sur 32 Sur 0 -- -- 94
2020-01-16 03:00:00 7.8 24 Sur 32 Sur 0.2 -- -- 93
2020-01-16 02:00:00 8.1 21 Sur 32 Sur 0 -- -- 93
2020-01-16 01:00:00 7.7 20 Sur 28 Sur 0 -- -- 93
2020-01-16 00:00:00 8.3 27 Sur 34 Sudoeste 0 -- -- 90
2020-01-15 23:00:00 8.6 19 Sur 33 Sur 0 -- -- 90
2020-01-15 22:00:00 8.3 18 Sur 26 Sur 0 -- -- 90
2020-01-15 21:00:00 8.2 23 Sur 30 Sur 0 -- -- 91
2020-01-15 20:00:00 7.4 13 Sur 17 Sur 0 -- -- 88
2020-01-15 19:00:00 8.4 15 Sur 20 Sur 0 -- -- 82
2020-01-15 18:00:00 10.3 16 Sudoeste 28 Sudoeste 0 -- -- 73
2020-01-15 17:00:00 10.8 14 Sudoeste 37 Sudoeste 0 -- -- 74
2020-01-15 16:00:00 10.3 16 Sudoeste 35 Sudoeste 0 -- -- 77
2020-01-15 15:00:00 9.6 21 Sudoeste 33 Sudoeste 0 -- -- 77
2020-01-15 14:00:00 9.2 18 Sudoeste 40 Sudoeste 0 -- -- 78
2020-01-15 13:00:00 -- -- -- -- -- -- -- -- --
2020-01-15 12:00:00 -- -- -- -- -- -- -- -- --
2020-01-15 11:00:00 -- -- -- -- -- -- -- -- --
2020-01-15 10:00:00 -- -- -- -- -- -- -- -- --
2020-01-15 09:00:00 -- -- -- -- -- -- -- -- --
2020-01-15 08:00:00 -- -- -- -- -- -- -- -- --
2020-01-15 07:00:00 -- -- -- -- -- -- -- -- --
2020-01-15 06:00:00 -- -- -- -- -- -- -- -- --
2020-01-15 05:00:00 -- -- -- -- -- -- -- -- --
2020-01-15 04:00:00 -- -- -- -- -- -- -- -- --
2020-01-15 03:00:00 -- -- -- -- -- -- -- -- --
2020-01-15 02:00:00 -- -- -- -- -- -- -- -- --
2020-01-15 01:00:00 -- -- -- -- -- -- -- -- --
2020-01-15 00:00:00 -- -- -- -- -- -- -- -- --
2020-01-14 23:00:00 -- -- -- -- -- -- -- -- --
2020-01-14 22:00:00 -- -- -- -- -- -- -- -- --
2020-01-14 21:00:00 -- -- -- -- -- -- -- -- --
2020-01-14 20:00:00 -- -- -- -- -- -- -- -- --
2020-01-14 19:00:00 -- -- -- -- -- -- -- -- --
2020-01-14 18:00:00 -- -- -- -- -- -- -- -- --
2020-01-14 17:00:00 -- -- -- -- -- -- -- -- --
2020-01-14 16:00:00 -- -- -- -- -- -- -- -- --
2020-01-14 15:00:00 -- -- -- -- -- -- -- -- --
2020-01-14 14:00:00 -- -- -- -- -- -- -- -- --
2020-01-14 13:00:00 -- -- -- -- -- -- -- -- --
2020-01-14 12:00:00 -- -- -- -- -- -- -- -- --
2020-01-14 11:00:00 -- -- -- -- -- -- -- -- --
2020-01-14 10:00:00 -- -- -- -- -- -- -- -- --
2020-01-14 09:00:00 -- -- -- -- -- -- -- -- --
2020-01-14 08:00:00 -- -- -- -- -- -- -- -- --
2020-01-14 07:00:00 -- -- -- -- -- -- -- -- --
2020-01-14 06:00:00 -- -- -- -- -- -- -- -- --
2020-01-14 05:00:00 -- -- -- -- -- -- -- -- --
2020-01-14 04:00:00 -- -- -- -- -- -- -- -- --
2020-01-14 03:00:00 -- -- -- -- -- -- -- -- --
2020-01-14 02:00:00 -- -- -- -- -- -- -- -- --
2020-01-14 01:00:00 -- -- -- -- -- -- -- -- --
2020-01-14 00:00:00 -- -- -- -- -- -- -- -- --
2020-01-13 23:00:00 -- -- -- -- -- -- -- -- --
2020-01-13 22:00:00 -- -- -- -- -- -- -- -- --
2020-01-13 21:00:00 -- -- -- -- -- -- -- -- --
2020-01-13 20:00:00 -- -- -- -- -- -- -- -- --
2020-01-13 19:00:00 -- -- -- -- -- -- -- -- --
2020-01-13 18:00:00 -- -- -- -- -- -- -- -- --
2020-01-13 17:00:00 -- -- -- -- -- -- -- -- --
2020-01-13 16:00:00 -- -- -- -- -- -- -- -- --
2020-01-13 15:00:00 -- -- -- -- -- -- -- -- --
2020-01-13 14:00:00 -- -- -- -- -- -- -- -- --
2020-01-13 13:00:00 -- -- -- -- -- -- -- -- --
2020-01-13 12:00:00 -- -- -- -- -- -- -- -- --
2020-01-13 11:00:00 -- -- -- -- -- -- -- -- --
2020-01-13 10:00:00 -- -- -- -- -- -- -- -- --
2020-01-13 09:00:00 -- -- -- -- -- -- -- -- --
2020-01-13 08:00:00 -- -- -- -- -- -- -- -- --
2020-01-13 07:00:00 -- -- -- -- -- -- -- -- --
2020-01-13 06:00:00 -- -- -- -- -- -- -- -- --
2020-01-13 05:00:00 -- -- -- -- -- -- -- -- --
2020-01-13 04:00:00 -- -- -- -- -- -- -- -- --
2020-01-13 03:00:00 -- -- -- -- -- -- -- -- --
2020-01-13 02:00:00 -- -- -- -- -- -- -- -- --
2020-01-13 01:00:00 -- -- -- -- -- -- -- -- --
2020-01-13 00:00:00 -- -- -- -- -- -- -- -- --
2020-01-12 23:00:00 -- -- -- -- -- -- -- -- --
2020-01-12 22:00:00 -- -- -- -- -- -- -- -- --
2020-01-12 21:00:00 -- -- -- -- -- -- -- -- --
2020-01-12 20:00:00 -- -- -- -- -- -- -- -- --
2020-01-12 19:00:00 -- -- -- -- -- -- -- -- --
2020-01-12 18:00:00 -- -- -- -- -- -- -- -- --
2020-01-12 17:00:00 -- -- -- -- -- -- -- -- --
2020-01-12 16:00:00 -- -- -- -- -- -- -- -- --
2020-01-12 15:00:00 -- -- -- -- -- -- -- -- --
2020-01-12 14:00:00 -- -- -- -- -- -- -- -- --
2020-01-12 13:00:00 -1.7 0 Calma 5 Nordeste 0 -- -- 96
2020-01-12 12:00:00 -2.2 0 Calma 8 Este 0 -- -- 96
2020-01-12 11:00:00 -3 4 Este 10 Nordeste 0 -- -- 96
2020-01-12 10:00:00 -3.4 4 Nordeste 10 Nordeste 0 -- -- 96
2020-01-12 09:00:00 -3.4 4 Norte 7 Norte 0 -- -- 95
2020-01-12 08:00:00 -3.3 5 Norte 9 Norte 0 -- -- 95
2020-01-12 07:00:00 -3 2 Nordeste 6 Sudeste 0 -- -- 96
2020-01-12 06:00:00 -2.8 2 Sur 8 Sur 0 -- -- 96
2020-01-12 05:00:00 -2.9 3 Sur 8 Sur 0 -- -- 96
2020-01-12 04:00:00 -2.8 6 Sur 12 Sur 0 -- -- 96
2020-01-12 03:00:00 -2.8 7 Sur 11 Sur 0 -- -- 95
2020-01-12 02:00:00 -2.5 8 Sur 13 Sur 0 -- -- 94
2020-01-12 01:00:00 -1.5 10 Sur 12 Sur 0 -- -- 94
2020-01-12 00:00:00 -0.3 4 Sur 12 Sudoeste 0 -- -- 93
2020-01-11 23:00:00 0.7 9 Sur 12 Sudoeste 0 -- -- 93
2020-01-11 22:00:00 1.6 10 Sudoeste 12 Sudoeste 0 -- -- 92
2020-01-11 21:00:00 1.9 9 Sur 15 Sur 0 -- -- 87
2020-01-11 20:00:00 3.4 10 Sur 12 Sur 0 -- -- 81
2020-01-11 19:00:00 4.8 6 Sur 7 Sur 0 -- -- 75
2020-01-11 18:00:00 6.5 5 Sudoeste 9 Sudoeste 0 -- -- 70
2020-01-11 17:00:00 7 5 Oeste 10 Sudoeste 0 -- -- 68
2020-01-11 16:00:00 7.4 4 Sudoeste 8 Sudoeste 0 -- -- 66
2020-01-11 15:00:00 6.6 4 Oeste 10 Sudoeste 0 -- -- 72
2020-01-11 14:00:00 5.9 3 Oeste 8 Oeste 0 -- -- 73
2020-01-11 13:00:00 4.4 3 Oeste 8 Norte 0 -- -- 80
2020-01-11 12:00:00 2.5 0 Calma 9 Norte 0 -- -- 88
2020-01-11 11:00:00 -0.4 6 Norte 9 Norte 0 -- -- 93
2020-01-11 10:00:00 -2.4 4 Nordeste 12 Este 0 -- -- 93
2020-01-11 09:00:00 -3.9 7 Nordeste 10 Nordeste 0 -- -- 94
2020-01-11 08:00:00 -3.7 7 Nordeste 10 Norte 0 -- -- 94
2020-01-11 07:00:00 -3 7 Norte 9 Nordeste 0 -- -- 91
2020-01-11 06:00:00 -2.1 8 Este 13 Este 0 -- -- 93
2020-01-11 05:00:00 -1.9 7 Nordeste 9 Nordeste 0 -- -- 93
2020-01-11 04:00:00 -2.5 4 Norte 6 Norte 0 -- -- 92
2020-01-11 03:00:00 -2.2 3 Nordeste 8 Norte 0 -- -- 91
2020-01-11 02:00:00 -1.8 4 Norte 7 Noroeste 0 -- -- 89
2020-01-11 01:00:00 0.2 0 Calma 6 Norte 0 -- -- 83
2020-01-11 00:00:00 0.6 5 Norte 8 Norte 0 -- -- 87
2020-01-10 23:00:00 1.3 4 Sur 19 Este 0 -- -- 84
2020-01-10 22:00:00 1.9 10 Este 13 Nordeste 0 -- -- 80
2020-01-10 21:00:00 1.7 9 Nordeste 13 Nordeste 0 -- -- 80
2020-01-10 20:00:00 4.4 4 Norte 12 Norte 0 -- -- 71
2020-01-10 19:00:00 5.8 8 Norte 9 Norte 0 -- -- 62
2020-01-10 18:00:00 8.1 4 Noroeste 5 Este 0 -- -- 54
2020-01-10 17:00:00 8.4 6 Norte 14 Norte 0 -- -- 52
2020-01-10 16:00:00 8.4 5 Norte 13 Noroeste 0 -- -- 55
2020-01-10 15:00:00 7.9 3 Sudeste 13 Norte 0 -- -- 56
2020-01-10 14:00:00 7.2 6 Nordeste 14 Norte 0 -- -- 60
2020-01-10 13:00:00 6.8 11 Norte 16 Norte 0 -- -- 66
2020-01-10 12:00:00 4.7 8 Noroeste 14 Norte 0 -- -- 77
2020-01-10 11:00:00 2.4 7 Norte 9 Norte 0 -- -- 85
2020-01-10 10:00:00 1 5 Noroeste 8 Sudoeste 0 -- -- 85
2020-01-10 09:00:00 1.1 3 Noroeste 11 Noroeste 0 -- -- 85
2020-01-10 08:00:00 1.4 4 Norte 11 Norte 0 -- -- 85
2020-01-10 07:00:00 1.1 4 Norte 8 Noroeste 0 -- -- 87
2020-01-10 06:00:00 1.1 3 Noroeste 15 Norte 0 -- -- 87
2020-01-10 05:00:00 1.4 5 Nordeste 17 Noroeste 0 -- -- 83
2020-01-10 04:00:00 2 7 Noroeste 20 Noroeste 0 -- -- 83
2020-01-10 03:00:00 2.3 7 Oeste 20 Oeste 0 -- -- 82
2020-01-10 02:00:00 2.6 15 Oeste 22 Noroeste 0 -- -- 82
2020-01-10 01:00:00 2.7 19 Noroeste 38 Oeste 0 -- -- 81
2020-01-10 00:00:00 3.2 15 Noroeste 26 Noroeste 0 -- -- 80
2020-01-09 23:00:00 3.1 16 Noroeste 30 Oeste 0 -- -- 80
2020-01-09 22:00:00 4.2 11 Oeste 40 Oeste 0 -- -- 75
2020-01-09 21:00:00 5.4 18 Oeste 37 Oeste 0 -- -- 73
2020-01-09 20:00:00 6.3 15 Noroeste 39 Oeste 0 -- -- 77
2020-01-09 19:00:00 6.7 18 Noroeste 36 Noroeste 0 -- -- 78
2020-01-09 18:00:00 7.9 11 Noroeste 32 Noroeste 0 -- -- 89
2020-01-09 17:00:00 10.1 17 Oeste 37 Oeste 0 -- -- 81
2020-01-09 16:00:00 10.7 26 Oeste 48 Oeste 0 -- -- 81
2020-01-09 15:00:00 10.4 21 Sudoeste 36 Sudoeste 0 -- -- 84
2020-01-09 14:00:00 6.3 19 Sur 26 Sur 0 -- -- 94
2020-01-09 13:00:00 5.2 6 Sudoeste 12 Sur 0 -- -- 97
2020-01-09 12:00:00 2.1 7 Sur 12 Sur 0 -- -- 97
2020-01-09 11:00:00 0.2 3 Sudeste 11 Noroeste 0 -- -- 97
2020-01-09 10:00:00 -0.4 7 Sur 11 Sur 0 -- -- 96
2020-01-09 09:00:00 -0.8 5 Noroeste 9 Sudeste 0 -- -- 95
2020-01-09 08:00:00 0.5 5 Sudoeste 18 Sudeste 0 -- -- 95
2020-01-09 07:00:00 -0.5 4 Sudeste 13 Noroeste 0 -- -- 93
2020-01-09 06:00:00 -0.1 5 Sudoeste 9 Noroeste 0 -- -- 94
2020-01-09 05:00:00 0 2 Sudeste 8 Noroeste 0 -- -- 94
2020-01-09 04:00:00 1.3 6 Este 8 Este 0 -- -- 93
2020-01-09 03:00:00 1.6 5 Nordeste 6 Norte 0 -- -- 92
2020-01-09 02:00:00 1.4 5 Nordeste 10 Sur 0 -- -- 93
2020-01-09 01:00:00 2 4 Noroeste 6 Sur 0 -- -- 88
2020-01-09 00:00:00 3.1 5 Sur 7 Sudeste 0 -- -- 91
2020-01-08 23:00:00 3.1 2 Noroeste -- -- 0 -- -- 91
2020-01-08 22:00:00 3.6 8 Sudoeste 11 Sur 0 -- -- 88
2020-01-08 21:00:00 4.9 4 Sudoeste 9 Sudoeste 0 -- -- 81
2020-01-08 20:00:00 5.6 6 Sur 14 Sur 0 -- -- 75
2020-01-08 19:00:00 6.7 12 Sur 13 Sur 0 -- -- 74
2020-01-08 18:00:00 9.1 4 Sudoeste 5 Sudoeste 0 -- -- 64
2020-01-08 17:00:00 10 3 Oeste 5 Oeste 0 -- -- 59
2020-01-08 16:00:00 8.9 3 Oeste 8 Sudoeste 0 -- -- 70
2020-01-08 15:00:00 7.3 5 Sudoeste 9 Sudoeste 0 -- -- 78
2020-01-08 14:00:00 5.4 6 Sudoeste 11 Sudoeste 0 -- -- 86
2020-01-08 13:00:00 3.6 6 Sudoeste 9 Sudoeste 0 -- -- 97
2020-01-08 12:00:00 1.1 5 Sudoeste 8 Sudoeste 0 -- -- 97
2020-01-08 11:00:00 -1 2 Norte 6 Noroeste 0.2 -- -- 97
2020-01-08 10:00:00 -2.2 4 Nordeste 9 Este 0 -- -- 97
2020-01-08 09:00:00 -3.4 5 Nordeste 10 Norte 0 -- -- 96
2020-01-08 08:00:00 -3.6 4 Noroeste 6 Noroeste 0 -- -- 96
2020-01-08 07:00:00 -3.4 2 Nordeste 7 Norte 0 -- -- 96
2020-01-08 06:00:00 -3.1 4 Norte 6 Norte 0 -- -- 96
2020-01-08 05:00:00 -3.1 5 Nordeste 6 Nordeste 0 -- -- 96
2020-01-08 04:00:00 -2.9 2 Norte 8 Sudoeste 0 -- -- 96
2020-01-08 03:00:00 -3.1 5 Sudoeste 9 Sur 0 -- -- 96
2020-01-08 02:00:00 -3 4 Sur 9 Sur 0 -- -- 96
2020-01-08 01:00:00 -3 7 Sur 10 Sur 0 -- -- 96
2020-01-08 00:00:00 -2.6 5 Sur 6 Sur 0 -- -- 96
2020-01-07 23:00:00 -2.1 4 Sur 6 Sur 0 -- -- 96
2020-01-07 22:00:00 -1.9 2 Sudoeste 5 Sur 0 -- -- 96
2020-01-07 21:00:00 -1.7 4 Sudoeste 9 Sudoeste 0 -- -- 95
2020-01-07 20:00:00 -1.1 4 Sur 12 Sur 0 -- -- 94
2020-01-07 19:00:00 0.4 9 Sur 12 Sur 0 -- -- 92
2020-01-07 18:00:00 2 6 Sur 10 Sudoeste 0 -- -- 89
2020-01-07 17:00:00 3 8 Sudoeste 13 Sudoeste 0 -- -- 95
2020-01-07 16:00:00 2.3 7 Sudoeste 14 Sur 0 -- -- 97
2020-01-07 15:00:00 1.1 8 Sudoeste 12 Sudoeste 0 -- -- 98
2020-01-07 14:00:00 -0.2 6 Sudoeste 12 Sudoeste 0 -- -- 97
2020-01-07 13:00:00 -1.4 0 Calma 7 Este 0 -- -- 97
2020-01-07 12:00:00 -2.6 3 Este 9 Norte 0 -- -- 97
2020-01-07 11:00:00 -3.6 4 Norte 7 Norte 0 -- -- 96
2020-01-07 10:00:00 -4.1 0 Calma 5 Sudeste 0 -- -- 96
2020-01-07 09:00:00 -4.1 2 Este 4 Este 0 -- -- 95
2020-01-07 08:00:00 -3.6 0 Calma 6 Noroeste 0 -- -- 96
2020-01-07 07:00:00 -3.4 4 Norte 8 Norte 0 -- -- 97
2020-01-07 06:00:00 -2.7 4 Norte 10 Norte 0 -- -- 97
2020-01-07 05:00:00 -2.1 5 Norte 9 Noroeste 0 -- -- 97
2020-01-07 04:00:00 -1.8 6 Norte 11 Norte 0 -- -- 97
2020-01-07 03:00:00 -1.6 5 Norte 9 Noroeste 0 -- -- 97
2020-01-07 02:00:00 -1.4 5 Norte 8 Norte 0 -- -- 97
2020-01-07 01:00:00 -1.3 3 Nordeste 10 Nordeste 0 -- -- 97
2020-01-07 00:00:00 -1.3 5 Este 12 Nordeste 0 -- -- 97
2020-01-06 23:00:00 -1.3 6 Este 12 Nordeste 0 -- -- 97
2020-01-06 22:00:00 -1.1 5 Sudeste 10 Este 0 -- -- 97
2020-01-06 21:00:00 -1 0 Calma 7 Sur 0 -- -- 97
2020-01-06 20:00:00 -0.9 3 Norte 10 Nordeste 0 -- -- 97
2020-01-06 19:00:00 -0.7 3 Nordeste 6 Norte 0 -- -- 97
2020-01-06 18:00:00 -0.5 0 Calma 9 Norte 0 -- -- 97
2020-01-06 17:00:00 -0.3 5 Sur 9 Sudoeste 0 -- -- 97
2020-01-06 16:00:00 -0.5 4 Sur 10 Sur 0 -- -- 97
2020-01-06 15:00:00 -0.6 4 Oeste 12 Oeste 0 -- -- 97
2020-01-06 14:00:00 -0.8 4 Sur 10 Norte 0.2 -- -- 97
2020-01-06 13:00:00 -1.2 6 Sudeste 12 Sudeste 0 -- -- 97
2020-01-06 12:00:00 -1.6 2 Nordeste 10 Sudeste 0 -- -- 97
2020-01-06 11:00:00 -2.2 6 Este 10 Sudeste 0 -- -- 97
2020-01-06 10:00:00 -2.1 4 Sur 9 Sudeste 0 -- -- 97